This demonstration page uses our WeatherBlox Daily Observations layout. Learn more.

Left ArrowRight Arrow

Hourly Observations for October 23, 2018

Temp ( °F °C ) Dew Point ( °F °C ) Humidity (%) Winds ( mph kmh ) Pressure ( in mb ) Visibility ( mi km ) Precip ( " mm )
12:57 am 00:57 Clear 40 4.4 30 -1.1 68 68 NNE 9 15 30.28 1025 10 16 0.00 0.00
1:57 am 01:57 Clear 40 4.4 30 -1.1 68 68 NNE 6 9 30.28 1025 10 16 0.00 0.00
2:57 am 02:57 Clear 40 4.4 29 -1.7 65 65 N 5 7 30.29 1026 10 16 0.00 0.00
3:57 am 03:57 Clear 41 5 30 -1.1 65 65 N 6 9 30.30 1026 10 16 0.00 0.00
4:57 am 04:57 Clear 40 4.4 30 -1.1 68 68 N 5 7 30.30 1026 10 16 0.00 0.00
5:57 am 05:57 Clear 37 2.8 30 -1.1 76 76 NNW 5 7 30.32 1027 10 16 0.00 0.00
6:57 am 06:57 Clear 37 2.8 29 -1.7 73 73 N 6 9 30.34 1027 10 16 0.00 0.00
7:57 am 07:57 Sunny 36 2.2 29 -1.7 76 76 N 6 9 30.36 1028 10 16 0.00 0.00
8:57 am 08:57 Sunny 38 3.3 31 -0.6 76 76 NE 7 11 30.38 1029 10 16 0.00 0.00
9:57 am 09:57 Sunny 46 7.8 32 0 58 58 E 9 15 30.39 1029 10 16 0.00 0.00
10:57 am 10:57 Sunny 50 10 33 0.6 52 52 E 12 19 30.39 1029 10 16 0.00 0.00
11:57 am 11:57 Sunny 57 13.9 32 0 39 39 ESE 12 19 30.38 1029 10 16 0.00 0.00
12:57 pm 12:57 Sunny 60 15.6 31 -0.6 33 33 ESE 13 20 30.36 1028 10 16 0.00 0.00
2:57 pm 14:57 Sunny 63 17.2 30 -1.1 29 29 ESE 15 24 30.30 1026 10 16 0.00 0.00
3:57 pm 15:57 Sunny 64 17.8 31 -0.6 29 29 ESE 15 24 30.28 1026 10 16 0.00 0.00
4:57 pm 16:57 Sunny 63 17.2 33 0.6 33 33 SE 13 20 30.27 1025 10 16 0.00 0.00
6:57 pm 18:57 Clear 55 12.8 33 0.6 44 44 SE 8 13 30.28 1025 10 16 0.00 0.00
7:57 pm 19:57 Clear 49 9.4 32 0 52 52 ESE 7 11 30.29 1026 10 16 0.00 0.00
8:57 pm 20:57 Clear 47 8.3 32 0 56 56 ESE 7 11 30.28 1025 10 16 0.00 0.00
9:57 pm 21:57 Clear 48 8.9 33 0.6 56 56 ESE 8 13 30.27 1025 10 16 0.00 0.00
10:57 pm 22:57 Clear 48 8.9 32 0 54 54 SE 9 15 30.27 1025 10 16 0.00 0.00
11:57 pm 23:57 Clear 47 8.3 32 0 56 56 SE 9 15 30.26 1025 10 16 0.00 0.00

Powered by AerisWeather